Tracking 19146 objects as of 23-Apr-2018
HD Live streaming from Space Station
objects crossing your sky now

FENGYUN 1C DEB

Track FENGYUN 1C DEB now!
10-day predictions


NORAD ID: 32102
Int'l Code: 1999-025CQU
Perigee: 570.4 km
Apogee: 741.0 km
Inclination: 99.3 °
Period: 97.7 minutes
Semi major axis: 7026 km
RCS: 0.0014 m2 (small)
Launch date: May 10, 1999
Source: People's Republic of China (PRC)
Launch site: Taiyaun Space Center, China (TSC)

Note: This is SATELLITE DEBRIS
aabbcc
Your satellite tracking list
Your tracking list is empty




NASA's NSSDC Master Catalog

Two Line Element Set (TLE):
1 32102U 99025CQU 18112.32679076 +.00011879 +00000-0 +16156-2 0  9993
2 32102 099.3346 059.0201 0121351 059.8921 091.6976 14.73929774536261
Source of the keplerian elements: AFSPC